Home > Weather > Nikaia > Past weeks

Flag for Greece Past Weather in Nikaia, Greece — Yesterday and Last 2 Weeks

Now
84 °F

Sunny.


Feels Like: 82 °F
Forecast: 78 / 95 °F
Wind: No wind

Location: Elefsis Airport

Current Time: Jul 31, 2016 at 8:37:42 AM

Latest Report: Jul 31, 2016 at 7:50 AM


Visibility: 10 mi

Pressure: 29.86 "Hg

Humidity: 31%

Dew Point: 50 °F

Location of NikaiaLocation

Past Weather in Nikaia — Graph

°F

Nikaia Temperature Yesterday

Maximum temperature yesterday: 97 °F (at 2:20 PM)
Minimum temperature yesterday: 79 °F (at 1:20 AM)
Average temperature yesterday: 90 °F

High & Low Weather Summary for the Past Weeks

 TemperatureHumidityPressure
High99 °F (Jul 23, 4:20 PM)88% (Jul 19, 3:50 AM)29.98 "Hg (Jul 19, 3:50 AM)
Low59 °F (Jul 19, 3:50 AM)14% (Jul 17, 2:50 PM)29.74 "Hg (Jul 16, 7:20 AM)
Average85 °F31%29.85 "Hg
* Reported Jul 16 7:20 AM — Jul 31 7:20 AM, Nikaia, Weather by CustomWeather, © 2016

Note: Actual official high and low records may vary slightly from our data, if they occured in-between our weather recording intervals... More about our weather records

Advertising

Nikaia Weather History for the Previous 24 Hours

Scroll right to see more
 ConditionsComfort  
Time TempWeatherWind HumidityBarometerVisibility
7:20 AM
Sun, Jul 31
82 °FClear.5 mph32%29.86 "Hg10 mi
6:50 AM82 °FClear.3 mph32%29.86 "Hg10 mi
6:20 AM81 °FClear.7 mph32%29.83 "Hg10 mi
5:50 AM81 °FClear.No wind32%29.83 "Hg10 mi
5:20 AM81 °FClear.No wind32%29.83 "Hg10 mi
4:50 AM79 °FClear.5 mph34%29.83 "Hg10 mi
4:20 AM81 °FClear.7 mph32%29.83 "Hg10 mi
3:50 AM81 °FClear.7 mph32%29.86 "Hg10 mi
3:20 AM82 °FClear.7 mph30%29.86 "Hg10 mi
2:50 AM81 °FClear.5 mph32%29.86 "Hg10 mi
2:20 AM84 °FClear.No wind29%29.86 "Hg10 mi
1:50 AM86 °FClear.No wind27%29.86 "Hg10 mi
1:20 AM84 °FClear.3 mph27%29.86 "Hg10 mi
12:50 AM84 °FClear.3 mph27%29.86 "Hg10 mi
12:20 AM86 °FClear.3 mph25%29.86 "Hg10 mi
11:50 PM
Sat, Jul 30
82 °FClear.3 mph30%29.86 "Hg10 mi
11:20 PM84 °FClear.7 mph27%29.86 "Hg10 mi
10:20 PM86 °FClear.5 mph25%29.86 "Hg10 mi
9:50 PM86 °FClear.5 mph25%29.86 "Hg10 mi
9:20 PM90 °FSunny.5 mph22%29.83 "Hg10 mi
8:50 PM91 °FSunny.5 mph23%29.83 "Hg10 mi
8:20 PM91 °FSunny.8 mph23%29.83 "Hg10 mi
7:50 PM93 °FSunny.9 mph23%29.80 "Hg10 mi
7:20 PM93 °FSunny.10 mph23%29.80 "Hg10 mi
6:50 PM95 °FSunny.10 mph22%29.80 "Hg10 mi
6:20 PM95 °FPassing clouds.10 mph22%29.80 "HgN/A
5:50 PM97 °FPassing clouds.12 mph20%29.80 "HgN/A
5:20 PM97 °FPassing clouds.10 mph20%29.80 "HgN/A
4:50 PM97 °FPassing clouds.10 mph19%29.80 "HgN/A
4:20 PM97 °FPassing clouds.9 mph20%29.80 "HgN/A
3:50 PM97 °FPassing clouds.10 mph22%29.83 "HgN/A
3:20 PM95 °FScattered clouds.9 mph23%29.83 "HgN/A
2:50 PM97 °FScattered clouds.12 mph22%29.83 "HgN/A
2:20 PM97 °FPassing clouds.9 mph22%29.83 "HgN/A
1:50 PM95 °FPassing clouds.9 mph22%29.83 "HgN/A
1:20 PM95 °FPassing clouds.9 mph22%29.83 "HgN/A
12:50 PM95 °FPassing clouds.9 mph22%29.86 "HgN/A
12:20 PM95 °FSunny.9 mph23%29.86 "Hg10 mi
11:50 AM93 °FSunny.12 mph23%29.86 "Hg10 mi
11:20 AM93 °FSunny.9 mph23%29.86 "Hg10 mi
10:50 AM91 °FSunny.9 mph24%29.86 "Hg10 mi
10:20 AM90 °FSunny.8 mph26%29.86 "Hg10 mi
9:50 AM90 °FSunny.10 mph26%29.86 "Hg10 mi
9:20 AM88 °FSunny.12 mph27%29.86 "Hg10 mi
8:50 AM86 °FSunny.12 mph29%29.86 "Hg10 mi
Weather by CustomWeather, © 2016

See weather overviewHow to use our weather pages